Tracking 29892 objects as of 21-Nov-2024
HD Live streaming from Space Station
objects crossing your sky now

STARLINK-5989

Track STARLINK-5989 now!
10-day predictions
STARLINK-5989 is classified as:


NORAD ID: 56781
Int'l Code: 2023-078Q
Perigee: 577.0 km
Apogee: 581.4 km
Inclination: 70.0 °
Period: 96.1 minutes
Semi major axis: 6950 km
RCS: Unknown
Launch date: May 31, 2023
Source: United States (US)
Launch site: AIR FORCE WESTERN TEST RANGE (AFWTR)
Your satellite tracking list
Your tracking list is empty




NASA's NSSDC Master Catalog

Two Line Element Set (TLE):
1 56781U 23078Q   24325.79594151  .00001522  00000-0  13527-3 0  9995
2 56781  69.9988  99.3867 0003155 270.4665  89.6132 14.98336921 81693
Source of the keplerian elements: AFSPC